Showing default

MKA PN2 (RELEK), 40070

Orbit data source: Space-Track

MKA PN2 (RELEK), 40070 is a Commonwealth of Independent States-origin payload satellite in SSO that was launched on Tue, 08 Jul 2014 UTC via a SOYUZ-2-1B launch vehicle from the Tyuratam Missile And Space Complex (TTMTR). Payload-class satellites include a variety of spacecraft equipped with specific instruments for various scientific and technological missions. These include communications satellites like Starlink; space stations such as the ISS; scientific satellites like the Hubble; Earth observation satellites from companies like Planet Labs, Umbra, and HawkEye 360; GPS; miniature CubeSats for education and research; and military/defense satellites.

Loading next visibility...
Identifier
40070, 2014-037B
Orbit
SSO
Country
Flag of CISCIS
Related business
Manufacturer
Lavochkin
Mission
Non-operational Civil Science
Bus & Motor
KARAT, Unknown motor
Mass
288 kg wet, 288 kg dry
Launch date (UTC)
2014-07-08 (12 years ago)
Launch vehicle
SOYUZ-2-1B
Launch site
Tyuratam Missile And Space Complex (TTMTR)
Object type
Payload
Rocket body
Debris
Shape & HBR
Box, 0.5 m
Radar Cross Section
1.500 m², Large (>1 m²)

Expand to show TLE details & history
Last TLE update: 19 hours ago

TLE from 19 hours ago
0 MKA PN2 (RELEK)
1 40070U 14037B   26070.89449850  .00001130  00000-0  24155-3 0  9993
2 40070  98.0618  52.0506 0130832  11.8548 348.5679 14.55531997618935
Epoch: 2026-03-11T21:28Z
TLE epoch observation values (Epoch: 2026-03-11T21:28:04.670Z)
Latitude
-0.00003°
Longitude
-79.52104°
Altitude
619.786 km
Speed
7.597 km/s
True Right ascension
03h 28m 12s
True Declination
0° 00' 00"
Sunlit
Object was in daylight at epoch
Visualization orbit readout
Latitude
Unknown
Longitude
Unknown
Altitude
Unknown
Speed
Unknown
Apparent Right ascension
Unknown
Apparent Declination
Unknown
Sunlit
N/A
Visualization observer readout
Local Sidereal Time
20:48:08
Azimuth
Unknown
Elevation
Unknown
Doppler factor
Unknown
Orbital elements
Apogee altitude
797.384 km
Perigee altitude
612.051 km
Semi-major axis
7,082.855 km
Eccentricity
0.01308
Inclination
98.0618°
RAAN
52.0506°
Arg. of periapsis
11.8548°
True anomaly
348.26591°
Mean anomaly
348.5679°
Eccentric anomaly
348.41739°
Mean motion
3.64108 °/min
Orbital period
98.87 mins
BSTAR
0.00024155
Loading maneuver chart data...
Computing Atmospheric mass density...
Loading historical data...
Loading historical data...
Loading historical data...
Loading historical data...
Loading historical data...
Loading historical data...
Loading historical data...

Documentation

Showing up to 5 results
|